Location: Carella
(45.8167°N, 9.2667°E)
Time: 11:13:14
(UTC+00:00)

KORONAS-FOTON - Pass Details

Date: 30 March 2020
Orbit: 506 x 532 km, 82.4° (Epoch: 25 May)

Event Time Altitude Azimuth Distance (km) Brightness Sun altitude
Rises 18:12:45 0° 351° (N) 2,653 7.7 -4.9°
Reaches altitude 10° 18:14:54 10° 352° (N) 1,755 6.8 -5.3°
Maximum altitude 18:18:45 83° 81° (E) 523 3.8 -5.9°
Drops below altitude 10° 18:22:33 10° 170° (S) 1,726 6.2 -6.6°
Sets 18:24:39 0° 171° (S) 2,603 7.1 -6.9°
